Погода в Талоне

Россия / Республика Алтай     52°20′21″N   88°21′48″E
темп.,
°C
ветер,
м/с
пор.,
м/с
влажн.,
%
обл.,
%
осадки,
мм/ч
давл.,
гПа
погр.,
м
26 февраля, пт
пт2601:00−21юв1198100 1.6 102720
04:00−21ю1297100 0.2 102833
07:00−22зсз24100100 0.4 1031168
10:00−24з3596100 0.6 1033844
13:00−22з3691100 1.0 1034946
16:00−21з2491100 0.2 1034895
19:00−24з13100100 0.5 103669
22:00−25ююз1299100 0.2 103932
27 февраля, сб
сб2701:00−25ю1198100 0.4 104020
04:00−26юв1198100 0.1 104119
07:00−25вюв1198100 0.3 104119
10:00−21всв1196100 0.1 1040177
13:00−17ссз2191100 0.3 1037497
16:00−16сз2291100 0.3 1036531
19:00−20ссз1199100 0.4 103820
22:00−21ююв1198100 0.1 104020
28 февраля, вс
вс2801:00−22юв1196100 0.1 104120
04:00−23юв129198 0.0 104220
07:00−23юв228593 0.0 104320
10:00−16юв128388 0.0 1041134
13:00−10зсз137794 0.0 1037686
16:00−10ссз1178100 0.0 1035530
19:00−14в1187100 0.1 103620
22:00−14вюв2292100 0.0 103630
1 марта, пн
пн101:00−14юв2287100 0.0 103440
04:00−13юв2287100 0.0 103164
07:00−12юв2395100 0.3 1029136
10:00−8юв2495100 2.1 1026249
13:00−4ююз2595100 3.6 1022393
16:00−2зюз31095100 1.3 1019919
19:00−2юз2994100 2.3 1019558
22:00−4зюз1298100 1.0 102098
2 марта, вт
вт201:00−4юз2498100 2.7 1019221
04:00−3ююз21197100 1.8 1018740
07:00−3юз21098100 4.4 1018753
10:00−2зюз3898100 3.1 1017672
13:00−1зюз2698100 5.7 1015584
16:00−1з2499100 2.3 1013329
19:00−2з0199100 4.7 101221
22:00−1юз31598100 2.3 10121541